Year,Month,Day,Hour,Minute,Value (Times are PST for temperature in C)
2013,09,26,00,00,9.80
2013,09,26,00,01,9.80
2013,09,26,00,02,9.80
2013,09,26,00,03,9.80
2013,09,26,00,04,9.80
2013,09,26,00,05,9.80
2013,09,26,00,06,9.80
2013,09,26,00,07,9.80
2013,09,26,00,08,9.80
2013,09,26,00,09,9.80
2013,09,26,00,10,9.80
2013,09,26,00,11,9.80
2013,09,26,00,12,9.80
2013,09,26,00,13,9.80
2013,09,26,00,14,9.80
2013,09,26,00,15,9.80
2013,09,26,00,16,9.80
2013,09,26,00,17,9.80
2013,09,26,00,18,9.70
2013,09,26,00,19,9.70
2013,09,26,00,20,9.70
2013,09,26,00,21,9.70
2013,09,26,00,22,9.70
2013,09,26,00,23,9.70
2013,09,26,00,24,9.70
2013,09,26,00,25,9.70
2013,09,26,00,26,9.70
2013,09,26,00,27,9.70
2013,09,26,00,28,9.60
2013,09,26,00,29,9.60
2013,09,26,00,30,9.60
2013,09,26,00,31,9.50
2013,09,26,00,32,9.50
2013,09,26,00,33,9.50
2013,09,26,00,34,9.40
2013,09,26,00,35,9.40
2013,09,26,00,36,9.40
2013,09,26,00,37,9.40
2013,09,26,00,38,9.40
2013,09,26,00,39,9.30
2013,09,26,00,40,9.30
2013,09,26,00,41,9.30
2013,09,26,00,42,9.30
2013,09,26,00,43,9.30
2013,09,26,00,44,9.30
2013,09,26,00,45,9.30
2013,09,26,00,46,9.20
2013,09,26,00,47,9.20
2013,09,26,00,48,9.20
2013,09,26,00,49,9.20
2013,09,26,00,50,9.20
2013,09,26,00,51,9.20
2013,09,26,00,52,9.10
2013,09,26,00,53,9.10
2013,09,26,00,54,9.10
2013,09,26,00,55,9.00
2013,09,26,00,56,9.00
2013,09,26,00,57,9.00
2013,09,26,00,58,8.90
2013,09,26,00,59,8.90
2013,09,26,01,00,8.90
2013,09,26,01,01,8.90
2013,09,26,01,02,8.90
2013,09,26,01,03,8.90
2013,09,26,01,04,8.90
2013,09,26,01,05,8.90
2013,09,26,01,06,8.90
2013,09,26,01,07,8.80
2013,09,26,01,08,8.80
2013,09,26,01,09,8.80
2013,09,26,01,10,8.80
2013,09,26,01,11,8.80
2013,09,26,01,12,8.80
2013,09,26,01,13,8.80
2013,09,26,01,14,8.80
2013,09,26,01,15,8.80
2013,09,26,01,16,8.80
2013,09,26,01,17,8.70
2013,09,26,01,18,8.70
2013,09,26,01,19,8.70
2013,09,26,01,20,8.70
2013,09,26,01,21,8.70
2013,09,26,01,22,8.70
2013,09,26,01,23,8.70
2013,09,26,01,24,8.70
2013,09,26,01,25,8.70
2013,09,26,01,26,8.70
2013,09,26,01,27,8.70
2013,09,26,01,28,8.70
2013,09,26,01,29,8.70
2013,09,26,01,30,8.60
2013,09,26,01,31,8.60
2013,09,26,01,32,8.60
2013,09,26,01,33,8.60
2013,09,26,01,34,8.60
2013,09,26,01,35,8.60
2013,09,26,01,36,8.60
2013,09,26,01,37,8.60
2013,09,26,01,38,8.60
2013,09,26,01,39,8.50
2013,09,26,01,40,8.50
2013,09,26,01,41,8.50
2013,09,26,01,42,8.50
2013,09,26,01,43,8.50
2013,09,26,01,44,8.50
2013,09,26,01,45,8.50
2013,09,26,01,46,8.50
2013,09,26,01,47,8.40
2013,09,26,01,48,8.40
2013,09,26,01,49,8.40
2013,09,26,01,50,8.40
2013,09,26,01,51,8.40
2013,09,26,01,52,8.40
2013,09,26,01,53,8.30
2013,09,26,01,54,8.30
2013,09,26,01,55,8.30
2013,09,26,01,56,8.30
2013,09,26,01,57,8.30
2013,09,26,01,58,8.30
2013,09,26,01,59,8.30
2013,09,26,02,00,8.30
2013,09,26,02,01,8.30
2013,09,26,02,02,8.30
2013,09,26,02,03,8.20
2013,09,26,02,04,8.20
2013,09,26,02,05,8.20
2013,09,26,02,06,8.20
2013,09,26,02,07,8.20
2013,09,26,02,08,8.20
2013,09,26,02,09,8.20
2013,09,26,02,10,8.10
2013,09,26,02,11,8.10
2013,09,26,02,12,8.10
2013,09,26,02,13,8.10
2013,09,26,02,14,8.00
2013,09,26,02,15,8.00
2013,09,26,02,16,8.00
2013,09,26,02,17,7.90
2013,09,26,02,18,7.90
2013,09,26,02,19,7.90
2013,09,26,02,20,7.90
2013,09,26,02,21,7.90
2013,09,26,02,22,7.80
2013,09,26,02,23,7.80
2013,09,26,02,24,7.80
2013,09,26,02,25,7.80
2013,09,26,02,26,7.80
2013,09,26,02,27,7.80
2013,09,26,02,28,7.80
2013,09,26,02,29,7.80
2013,09,26,02,30,7.80
2013,09,26,02,31,7.90
2013,09,26,02,32,7.90
2013,09,26,02,33,7.90
2013,09,26,02,34,7.90
2013,09,26,02,35,7.90
2013,09,26,02,36,7.90
2013,09,26,02,37,7.90
2013,09,26,02,38,7.90
2013,09,26,02,39,7.90
2013,09,26,02,40,7.90
2013,09,26,02,41,7.90
2013,09,26,02,42,7.90
2013,09,26,02,43,7.90
2013,09,26,02,44,7.90
2013,09,26,02,45,7.90
2013,09,26,02,46,7.80
2013,09,26,02,47,7.80
2013,09,26,02,48,7.80
2013,09,26,02,49,7.80
2013,09,26,02,50,7.80
2013,09,26,02,51,7.80
2013,09,26,02,52,7.80
2013,09,26,02,53,7.80
2013,09,26,02,54,7.80
2013,09,26,02,55,7.80
2013,09,26,02,56,7.70
2013,09,26,02,57,7.70
2013,09,26,02,58,7.70
2013,09,26,02,59,7.70
2013,09,26,03,00,7.70
2013,09,26,03,01,7.70
2013,09,26,03,02,7.70
2013,09,26,03,03,7.70
2013,09,26,03,04,7.70
2013,09,26,03,05,7.70
2013,09,26,03,06,7.70
2013,09,26,03,07,7.70
2013,09,26,03,08,7.70
2013,09,26,03,09,7.70
2013,09,26,03,10,7.70
2013,09,26,03,11,7.70
2013,09,26,03,12,7.70
2013,09,26,03,13,7.70
2013,09,26,03,14,7.70
2013,09,26,03,15,7.70
2013,09,26,03,16,7.80
2013,09,26,03,17,7.80
2013,09,26,03,18,7.80
2013,09,26,03,19,7.80
2013,09,26,03,20,7.80
2013,09,26,03,21,7.80
2013,09,26,03,22,7.90
2013,09,26,03,23,7.90
2013,09,26,03,24,7.90
2013,09,26,03,25,7.90
2013,09,26,03,26,7.90
2013,09,26,03,27,7.90
2013,09,26,03,28,7.90
2013,09,26,03,29,7.90
2013,09,26,03,30,7.90
2013,09,26,03,31,7.90
2013,09,26,03,32,7.90
2013,09,26,03,33,7.90
2013,09,26,03,34,7.90
2013,09,26,03,35,7.90
2013,09,26,03,36,7.90
2013,09,26,03,37,7.90
2013,09,26,03,38,7.90
2013,09,26,03,39,7.90
2013,09,26,03,40,7.90
2013,09,26,03,41,7.90
2013,09,26,03,42,7.90
2013,09,26,03,43,7.90
2013,09,26,03,44,7.90
2013,09,26,03,45,7.80
2013,09,26,03,46,7.80
2013,09,26,03,47,7.80
2013,09,26,03,48,7.80
2013,09,26,03,49,7.80
2013,09,26,03,50,7.70
2013,09,26,03,51,7.70
2013,09,26,03,52,7.70
2013,09,26,03,53,7.70
2013,09,26,03,54,7.70
2013,09,26,03,55,7.70
2013,09,26,03,56,7.70
2013,09,26,03,57,7.70
2013,09,26,03,58,7.80
2013,09,26,03,59,7.80
2013,09,26,04,00,7.80
2013,09,26,04,01,7.80
2013,09,26,04,02,7.80
2013,09,26,04,03,7.70
2013,09,26,04,04,7.70
2013,09,26,04,05,7.70
2013,09,26,04,06,7.70
2013,09,26,04,07,7.70
2013,09,26,04,08,7.70
2013,09,26,04,09,7.70
2013,09,26,04,10,7.70
2013,09,26,04,11,7.80
2013,09,26,04,12,7.80
2013,09,26,04,13,7.80
2013,09,26,04,14,7.80
2013,09,26,04,15,7.80
2013,09,26,04,16,7.80
2013,09,26,04,17,7.80
2013,09,26,04,18,7.80
2013,09,26,04,19,7.70
2013,09,26,04,20,7.70
2013,09,26,04,21,7.70
2013,09,26,04,22,7.70
2013,09,26,04,23,7.60
2013,09,26,04,24,7.60
2013,09,26,04,25,7.60
2013,09,26,04,26,7.60
2013,09,26,04,27,7.60
2013,09,26,04,28,7.60
2013,09,26,04,29,7.50
2013,09,26,04,30,7.50
2013,09,26,04,31,7.50
2013,09,26,04,32,7.50
2013,09,26,04,33,7.50
2013,09,26,04,34,7.50
2013,09,26,04,35,7.50
2013,09,26,04,36,7.60
2013,09,26,04,37,7.60
2013,09,26,04,38,7.60
2013,09,26,04,39,7.70
2013,09,26,04,40,7.70
2013,09,26,04,41,7.70
2013,09,26,04,42,7.70
2013,09,26,04,43,7.80
2013,09,26,04,44,7.80
2013,09,26,04,45,7.80
2013,09,26,04,46,7.80
2013,09,26,04,47,7.70
2013,09,26,04,48,7.70
2013,09,26,04,49,7.70
2013,09,26,04,50,7.70
2013,09,26,04,51,7.70
2013,09,26,04,52,7.70
2013,09,26,04,53,7.70
2013,09,26,04,54,7.70
2013,09,26,04,55,7.70
2013,09,26,04,56,7.70
2013,09,26,04,57,7.60
2013,09,26,04,58,7.60
2013,09,26,04,59,7.60
2013,09,26,05,00,7.60
2013,09,26,05,01,7.50
2013,09,26,05,02,7.50
2013,09,26,05,03,7.50
2013,09,26,05,04,7.50
2013,09,26,05,05,7.40
2013,09,26,05,06,7.40
2013,09,26,05,07,7.40
2013,09,26,05,08,7.40
2013,09,26,05,09,7.40
2013,09,26,05,10,7.40
2013,09,26,05,11,7.40
2013,09,26,05,12,7.30
2013,09,26,05,13,7.30
2013,09,26,05,14,7.30
2013,09,26,05,15,7.30
2013,09,26,05,16,7.20
2013,09,26,05,17,7.20
2013,09,26,05,18,7.10
2013,09,26,05,19,7.10
2013,09,26,05,20,7.10
2013,09,26,05,21,7.00
2013,09,26,05,22,7.00
2013,09,26,05,23,6.90
2013,09,26,05,24,6.90
2013,09,26,05,25,6.90
2013,09,26,05,26,6.90
2013,09,26,05,27,6.90
2013,09,26,05,28,6.90
2013,09,26,05,29,6.90
2013,09,26,05,30,6.90
2013,09,26,05,31,6.90
2013,09,26,05,32,6.90
2013,09,26,05,33,6.90
2013,09,26,05,34,6.90
2013,09,26,05,35,6.90
2013,09,26,05,36,6.90
2013,09,26,05,37,6.90
2013,09,26,05,38,6.90
2013,09,26,05,39,6.90
2013,09,26,05,40,6.90
2013,09,26,05,41,7.00
2013,09,26,05,42,6.90
2013,09,26,05,43,6.90
2013,09,26,05,44,6.90
2013,09,26,05,45,6.90
2013,09,26,05,46,6.90
2013,09,26,05,47,6.90
2013,09,26,05,48,6.90
2013,09,26,05,49,6.90
2013,09,26,05,50,6.80
2013,09,26,05,51,6.80
2013,09,26,05,52,6.80
2013,09,26,05,53,6.80
2013,09,26,05,54,6.80
2013,09,26,05,55,6.80
2013,09,26,05,56,6.80
2013,09,26,05,57,6.80
2013,09,26,05,58,6.80
2013,09,26,05,59,6.80
2013,09,26,06,00,6.80
2013,09,26,06,01,6.80
2013,09,26,06,02,6.80
2013,09,26,06,03,6.80
2013,09,26,06,04,6.80
2013,09,26,06,05,6.70
2013,09,26,06,06,6.70
2013,09,26,06,07,6.70
2013,09,26,06,08,6.70
2013,09,26,06,09,6.70
2013,09,26,06,10,6.70
2013,09,26,06,11,6.70
2013,09,26,06,12,6.70
2013,09,26,06,13,6.70
2013,09,26,06,14,6.70
2013,09,26,06,15,6.70
2013,09,26,06,16,6.70
2013,09,26,06,17,6.70
2013,09,26,06,18,6.60
2013,09,26,06,19,6.60
2013,09,26,06,20,6.60
2013,09,26,06,21,6.60
2013,09,26,06,22,6.60
2013,09,26,06,23,6.60
2013,09,26,06,24,6.60
2013,09,26,06,25,6.60
2013,09,26,06,26,6.50
2013,09,26,06,27,6.50
2013,09,26,06,28,6.50
2013,09,26,06,29,6.50
2013,09,26,06,30,6.40
2013,09,26,06,31,6.40
2013,09,26,06,32,6.40
2013,09,26,06,33,6.40
2013,09,26,06,34,6.40
2013,09,26,06,35,6.40
2013,09,26,06,36,6.40
2013,09,26,06,37,6.30
2013,09,26,06,38,6.30
2013,09,26,06,39,6.30
2013,09,26,06,40,6.30
2013,09,26,06,41,6.30
2013,09,26,06,42,6.20
2013,09,26,06,43,6.20
2013,09,26,06,44,6.20
2013,09,26,06,45,6.20
2013,09,26,06,46,6.20
2013,09,26,06,47,6.10
2013,09,26,06,48,6.10
2013,09,26,06,49,6.10
2013,09,26,06,50,6.10
2013,09,26,06,51,6.10
2013,09,26,06,52,6.10
2013,09,26,06,53,6.10
2013,09,26,06,54,6.00
2013,09,26,06,55,6.00
2013,09,26,06,56,6.00
2013,09,26,06,57,6.00
2013,09,26,06,58,6.00
2013,09,26,06,59,6.00
2013,09,26,07,00,6.00
2013,09,26,07,01,6.00
2013,09,26,07,02,6.00
2013,09,26,07,03,5.90
2013,09,26,07,04,6.00
2013,09,26,07,05,5.90
2013,09,26,07,06,6.00
2013,09,26,07,07,6.00
2013,09,26,07,08,6.00
2013,09,26,07,09,6.00
2013,09,26,07,10,6.00
2013,09,26,07,11,5.90
2013,09,26,07,12,6.00
2013,09,26,07,13,6.00
2013,09,26,07,14,6.00
2013,09,26,07,15,5.90
2013,09,26,07,16,5.90
2013,09,26,07,17,5.90
2013,09,26,07,18,5.90
2013,09,26,07,19,5.90
2013,09,26,07,20,6.00
2013,09,26,07,21,6.00
2013,09,26,07,22,6.00
2013,09,26,07,23,6.00
2013,09,26,07,24,6.00
2013,09,26,07,25,6.10
2013,09,26,07,26,6.10
2013,09,26,07,27,6.10
2013,09,26,07,28,6.10
2013,09,26,07,29,6.20
2013,09,26,07,30,6.20
2013,09,26,07,31,6.30
2013,09,26,07,32,6.30
2013,09,26,07,33,6.30
2013,09,26,07,34,6.40
2013,09,26,07,35,6.40
2013,09,26,07,36,6.40
2013,09,26,07,37,6.40
2013,09,26,07,38,6.50
2013,09,26,07,39,6.50
2013,09,26,07,40,6.50
2013,09,26,07,41,6.60
2013,09,26,07,42,6.60
2013,09,26,07,43,6.60
2013,09,26,07,44,6.70
2013,09,26,07,45,6.70
2013,09,26,07,46,6.70
2013,09,26,07,47,6.70
2013,09,26,07,48,6.80
2013,09,26,07,49,6.80
2013,09,26,07,50,6.90
2013,09,26,07,51,7.00
2013,09,26,07,52,7.00
2013,09,26,07,53,7.10
2013,09,26,07,54,7.10
2013,09,26,07,55,7.20
2013,09,26,07,56,7.30
2013,09,26,07,57,7.30
2013,09,26,07,58,7.30
2013,09,26,07,59,7.40
2013,09,26,08,00,7.50
2013,09,26,08,01,7.50
2013,09,26,08,02,7.60
2013,09,26,08,03,7.70
2013,09,26,08,04,7.70
2013,09,26,08,05,7.80
2013,09,26,08,06,7.80
2013,09,26,08,07,7.90
2013,09,26,08,08,7.90
2013,09,26,08,09,7.90
2013,09,26,08,10,7.90
2013,09,26,08,11,8.00
2013,09,26,08,12,8.10
2013,09,26,08,13,8.20
2013,09,26,08,14,8.20
2013,09,26,08,15,8.20
2013,09,26,08,16,8.20
2013,09,26,08,17,8.30
2013,09,26,08,18,8.30
2013,09,26,08,19,8.30
2013,09,26,08,20,8.30
2013,09,26,08,21,8.40
2013,09,26,08,22,8.40
2013,09,26,08,23,8.40
2013,09,26,08,24,8.40
2013,09,26,08,25,8.50
2013,09,26,08,26,8.50
2013,09,26,08,27,8.50
2013,09,26,08,28,8.50
2013,09,26,08,29,8.60
2013,09,26,08,30,8.60
2013,09,26,08,31,8.60
2013,09,26,08,32,8.60
2013,09,26,08,33,8.60
2013,09,26,08,34,8.70
2013,09,26,08,35,8.70
2013,09,26,08,36,8.70
2013,09,26,08,37,8.70
2013,09,26,08,38,8.70
2013,09,26,08,39,8.80
2013,09,26,08,40,8.80
2013,09,26,08,41,8.80
2013,09,26,08,42,8.80
2013,09,26,08,43,8.80
2013,09,26,08,44,8.90
2013,09,26,08,45,8.90
2013,09,26,08,46,8.90
2013,09,26,08,47,8.90
2013,09,26,08,48,8.90
2013,09,26,08,49,9.00
2013,09,26,08,50,9.00
2013,09,26,08,51,9.00
2013,09,26,08,52,9.10
2013,09,26,08,53,9.10
2013,09,26,08,54,9.10
2013,09,26,08,55,9.10
2013,09,26,08,56,9.20
2013,09,26,08,57,9.20
2013,09,26,08,58,9.20
2013,09,26,08,59,9.30
2013,09,26,09,00,9.30
2013,09,26,09,01,9.30
2013,09,26,09,02,9.30
2013,09,26,09,03,9.40
2013,09,26,09,04,9.40
2013,09,26,09,05,9.50
2013,09,26,09,06,9.50
2013,09,26,09,07,9.60
2013,09,26,09,08,9.60
2013,09,26,09,09,9.70
2013,09,26,09,10,9.70
2013,09,26,09,11,9.70
2013,09,26,09,12,9.80
2013,09,26,09,13,9.80
2013,09,26,09,14,9.80
2013,09,26,09,15,9.80
2013,09,26,09,16,9.80
2013,09,26,09,17,9.90
2013,09,26,09,18,9.90
2013,09,26,09,19,9.90
2013,09,26,09,20,9.90
2013,09,26,09,21,9.90
2013,09,26,09,22,10.00
2013,09,26,09,23,10.00
2013,09,26,09,24,10.00
2013,09,26,09,25,10.10
2013,09,26,09,26,10.10
2013,09,26,09,27,10.10
2013,09,26,09,28,10.10
2013,09,26,09,29,10.20
2013,09,26,09,30,10.20
2013,09,26,09,31,10.20
2013,09,26,09,32,10.20
2013,09,26,09,33,10.30
2013,09,26,09,34,10.30
2013,09,26,09,35,10.30
2013,09,26,09,36,10.30
2013,09,26,09,37,10.30
2013,09,26,09,38,10.40
2013,09,26,09,39,10.40
2013,09,26,09,40,10.40
2013,09,26,09,41,10.40
2013,09,26,09,42,10.50
2013,09,26,09,43,10.50
2013,09,26,09,44,10.60
2013,09,26,09,45,10.60
2013,09,26,09,46,10.60
2013,09,26,09,47,10.60
2013,09,26,09,48,10.70
2013,09,26,09,49,10.70
2013,09,26,09,50,10.80
2013,09,26,09,51,10.90
2013,09,26,09,52,10.90
2013,09,26,09,53,11.00
2013,09,26,09,54,11.10
2013,09,26,09,55,11.20
2013,09,26,09,56,11.30
2013,09,26,09,57,11.40
2013,09,26,09,58,11.50
2013,09,26,09,59,11.60
2013,09,26,10,00,11.70
2013,09,26,10,01,11.80
2013,09,26,10,02,11.90
2013,09,26,10,03,12.00
2013,09,26,10,04,12.10
2013,09,26,10,05,12.20
2013,09,26,10,06,12.30
2013,09,26,10,07,12.40
2013,09,26,10,08,12.40
2013,09,26,10,09,12.50
2013,09,26,10,10,12.60
2013,09,26,10,11,12.70
2013,09,26,10,12,12.70
2013,09,26,10,13,12.80
2013,09,26,10,14,12.90
2013,09,26,10,15,12.90
2013,09,26,10,16,13.00
2013,09,26,10,17,13.10
2013,09,26,10,18,13.20
2013,09,26,10,19,13.20
2013,09,26,10,20,13.30
2013,09,26,10,21,13.30
2013,09,26,10,22,13.40
2013,09,26,10,23,13.40
2013,09,26,10,24,13.50
2013,09,26,10,25,13.60
2013,09,26,10,26,13.60
2013,09,26,10,27,13.70
2013,09,26,10,28,13.70
2013,09,26,10,29,13.70
2013,09,26,10,30,13.80
2013,09,26,10,31,13.80
2013,09,26,10,32,13.90
2013,09,26,10,33,13.90
2013,09,26,10,34,14.00
2013,09,26,10,35,14.10
2013,09,26,10,36,14.20
2013,09,26,10,37,14.20
2013,09,26,10,38,14.30
2013,09,26,10,39,14.30
2013,09,26,10,40,14.40
2013,09,26,10,41,14.40
2013,09,26,10,42,14.40
2013,09,26,10,43,14.50
2013,09,26,10,44,14.50
2013,09,26,10,45,14.50
2013,09,26,10,46,14.60
2013,09,26,10,47,14.60
2013,09,26,10,48,14.60
2013,09,26,10,49,14.60
2013,09,26,10,50,14.60
2013,09,26,10,51,14.60
2013,09,26,10,52,14.70
2013,09,26,10,53,14.70
2013,09,26,10,54,14.70
2013,09,26,10,55,14.80
2013,09,26,10,56,14.80
2013,09,26,10,57,14.90
2013,09,26,10,58,14.90
2013,09,26,10,59,15.00
2013,09,26,11,00,15.00
2013,09,26,11,01,15.00
2013,09,26,11,02,15.10
2013,09,26,11,03,15.10
2013,09,26,11,04,15.10
2013,09,26,11,05,15.20
2013,09,26,11,06,15.20
2013,09,26,11,07,15.20
2013,09,26,11,08,15.20
2013,09,26,11,09,15.20
2013,09,26,11,10,15.20
2013,09,26,11,11,15.20
2013,09,26,11,12,15.20
2013,09,26,11,13,15.20
2013,09,26,11,14,15.20
2013,09,26,11,15,15.20
2013,09,26,11,16,15.20
2013,09,26,11,17,15.20
2013,09,26,11,18,15.20
2013,09,26,11,19,15.20
2013,09,26,11,20,15.20
2013,09,26,11,21,15.10
2013,09,26,11,22,15.10
2013,09,26,11,23,15.10
2013,09,26,11,24,15.00
2013,09,26,11,25,15.00
2013,09,26,11,26,15.00
2013,09,26,11,27,15.00
2013,09,26,11,28,14.90
2013,09,26,11,29,14.90
2013,09,26,11,30,14.90
2013,09,26,11,31,14.90
2013,09,26,11,32,14.90
2013,09,26,11,33,14.90
2013,09,26,11,34,14.90
2013,09,26,11,35,14.90
2013,09,26,11,36,15.00
2013,09,26,11,37,15.00
2013,09,26,11,38,15.00
2013,09,26,11,39,15.10
2013,09,26,11,40,15.10
2013,09,26,11,41,15.20
2013,09,26,11,42,15.20
2013,09,26,11,43,15.20
2013,09,26,11,44,15.30
2013,09,26,11,45,15.30
2013,09,26,11,46,15.30
2013,09,26,11,47,15.40
2013,09,26,11,48,15.40
2013,09,26,11,49,15.40
2013,09,26,11,50,15.50
2013,09,26,11,51,15.60
2013,09,26,11,52,15.60
2013,09,26,11,53,15.60
2013,09,26,11,54,15.60
2013,09,26,11,55,15.70
2013,09,26,11,56,15.70
2013,09,26,11,57,15.70
2013,09,26,11,58,15.70
2013,09,26,11,59,15.80
2013,09,26,12,00,15.80
2013,09,26,12,01,15.80
2013,09,26,12,02,15.70
2013,09,26,12,03,15.70
2013,09,26,12,04,15.70
2013,09,26,12,05,15.70
2013,09,26,12,06,15.60
2013,09,26,12,07,15.60
2013,09,26,12,08,15.50
2013,09,26,12,09,15.50
2013,09,26,12,10,15.40
2013,09,26,12,11,15.30
2013,09,26,12,12,15.30
2013,09,26,12,13,15.30
2013,09,26,12,14,15.40
2013,09,26,12,15,15.40
2013,09,26,12,16,15.40
2013,09,26,12,17,15.40
2013,09,26,12,18,15.40
2013,09,26,12,19,15.40
2013,09,26,12,20,15.50
2013,09,26,12,21,15.50
2013,09,26,12,22,15.60
2013,09,26,12,23,15.60
2013,09,26,12,24,15.70
2013,09,26,12,25,15.70
2013,09,26,12,26,15.70
2013,09,26,12,27,15.70
2013,09,26,12,28,15.70
2013,09,26,12,29,15.70
2013,09,26,12,30,15.70
2013,09,26,12,31,15.70
2013,09,26,12,32,15.70
2013,09,26,12,33,15.70
2013,09,26,12,34,15.70
2013,09,26,12,35,15.60
2013,09,26,12,36,15.60
2013,09,26,12,37,15.50
2013,09,26,12,38,15.50
2013,09,26,12,39,15.40
2013,09,26,12,40,15.40
2013,09,26,12,41,15.40
2013,09,26,12,42,15.40
2013,09,26,12,43,15.50
2013,09,26,12,44,15.50
2013,09,26,12,45,15.50
2013,09,26,12,46,15.60
2013,09,26,12,47,15.60
2013,09,26,12,48,15.60
2013,09,26,12,49,15.60
2013,09,26,12,50,15.60
2013,09,26,12,51,15.60
2013,09,26,12,52,15.60
2013,09,26,12,53,15.60
2013,09,26,12,54,15.60
2013,09,26,12,55,15.60
2013,09,26,12,56,15.60
2013,09,26,12,57,15.60
2013,09,26,12,58,15.60
2013,09,26,12,59,15.60
2013,09,26,13,00,15.60
2013,09,26,13,01,15.60
2013,09,26,13,02,15.60
2013,09,26,13,03,15.50
2013,09,26,13,04,15.50
2013,09,26,13,05,15.50
2013,09,26,13,06,15.60
2013,09,26,13,07,15.60
2013,09,26,13,08,15.60
2013,09,26,13,09,15.60
2013,09,26,13,10,15.60
2013,09,26,13,11,15.60
2013,09,26,13,12,15.60
2013,09,26,13,13,15.70
2013,09,26,13,14,15.70
2013,09,26,13,15,15.80
2013,09,26,13,16,15.70
2013,09,26,13,17,15.70
2013,09,26,13,18,15.70
2013,09,26,13,19,15.70
2013,09,26,13,20,15.70
2013,09,26,13,21,15.60
2013,09,26,13,22,15.60
2013,09,26,13,23,15.60
2013,09,26,13,24,15.50
2013,09,26,13,25,15.50
2013,09,26,13,26,15.50
2013,09,26,13,27,15.60
2013,09,26,13,28,15.60
2013,09,26,13,29,15.70
2013,09,26,13,30,15.70
2013,09,26,13,31,15.80
2013,09,26,13,32,15.80
2013,09,26,13,33,15.90
2013,09,26,13,34,15.90
2013,09,26,13,35,15.90
2013,09,26,13,36,15.80
2013,09,26,13,37,15.80
2013,09,26,13,38,15.70
2013,09,26,13,39,15.60
2013,09,26,13,40,15.60
2013,09,26,13,41,15.50
2013,09,26,13,42,15.40
2013,09,26,13,43,15.30
2013,09,26,13,44,15.30
2013,09,26,13,45,15.30
2013,09,26,13,46,15.30
2013,09,26,13,47,15.30
2013,09,26,13,48,15.20
2013,09,26,13,49,15.20
2013,09,26,13,50,15.20
2013,09,26,13,51,15.20
2013,09,26,13,52,15.20
2013,09,26,13,53,15.20
2013,09,26,13,54,15.10
2013,09,26,13,55,15.20
2013,09,26,13,56,15.20
2013,09,26,13,57,15.20
2013,09,26,13,58,15.30
2013,09,26,13,59,15.30
2013,09,26,14,00,15.30
2013,09,26,14,01,15.30
2013,09,26,14,02,15.40
2013,09,26,14,03,15.40
2013,09,26,14,04,15.40
2013,09,26,14,05,15.40
2013,09,26,14,06,15.40
2013,09,26,14,07,15.40
2013,09,26,14,08,15.40
2013,09,26,14,09,15.40
2013,09,26,14,10,15.40
2013,09,26,14,11,15.30
2013,09,26,14,12,15.30
2013,09,26,14,13,15.30
2013,09,26,14,14,15.20
2013,09,26,14,15,15.10
2013,09,26,14,16,15.00
2013,09,26,14,17,14.90
2013,09,26,14,18,14.80
2013,09,26,14,19,14.70
2013,09,26,14,20,14.60
2013,09,26,14,21,14.60
2013,09,26,14,22,14.60
2013,09,26,14,23,14.60
2013,09,26,14,24,14.50
2013,09,26,14,25,14.50
2013,09,26,14,26,14.50
2013,09,26,14,27,14.50
2013,09,26,14,28,14.40
2013,09,26,14,29,14.40
2013,09,26,14,30,14.50
2013,09,26,14,31,14.50
2013,09,26,14,32,14.50
2013,09,26,14,33,14.60
2013,09,26,14,34,14.60
2013,09,26,14,35,14.60
2013,09,26,14,36,14.60
2013,09,26,14,37,14.60
2013,09,26,14,38,14.60
2013,09,26,14,39,14.60
2013,09,26,14,40,14.60
2013,09,26,14,41,14.70
2013,09,26,14,42,14.70
2013,09,26,14,43,14.70
2013,09,26,14,44,14.80
2013,09,26,14,45,14.80
2013,09,26,14,46,14.80
2013,09,26,14,47,14.80
2013,09,26,14,48,14.80
2013,09,26,14,49,14.80
2013,09,26,14,50,14.80
2013,09,26,14,51,14.80
2013,09,26,14,52,14.80
2013,09,26,14,53,14.80
2013,09,26,14,54,14.80
2013,09,26,14,55,14.90
2013,09,26,14,56,14.90
2013,09,26,14,57,14.90
2013,09,26,14,58,14.90
2013,09,26,14,59,14.90
2013,09,26,15,00,14.90
2013,09,26,15,01,14.90
2013,09,26,15,02,14.90
2013,09,26,15,03,14.90
2013,09,26,15,04,14.80
2013,09,26,15,05,14.80
2013,09,26,15,06,14.70
2013,09,26,15,07,14.70
2013,09,26,15,08,14.60
2013,09,26,15,09,14.60
2013,09,26,15,10,14.60
2013,09,26,15,11,14.60
2013,09,26,15,12,14.50
2013,09,26,15,13,14.50
2013,09,26,15,14,14.40
2013,09,26,15,15,14.40
2013,09,26,15,16,14.40
2013,09,26,15,17,14.40
2013,09,26,15,18,14.40
2013,09,26,15,19,14.40
2013,09,26,15,20,14.50
2013,09,26,15,21,14.50
2013,09,26,15,22,14.50
2013,09,26,15,23,14.50
2013,09,26,15,24,14.60
2013,09,26,15,25,14.60
2013,09,26,15,26,14.70
2013,09,26,15,27,14.70
2013,09,26,15,28,14.80
2013,09,26,15,29,14.80
2013,09,26,15,30,14.80
2013,09,26,15,31,14.90
2013,09,26,15,32,14.90
2013,09,26,15,33,14.90
2013,09,26,15,34,14.90
2013,09,26,15,35,14.90
2013,09,26,15,36,14.80
2013,09,26,15,37,14.80
2013,09,26,15,38,14.70
2013,09,26,15,39,14.70
2013,09,26,15,40,14.70
2013,09,26,15,41,14.70
2013,09,26,15,42,14.60
2013,09,26,15,43,14.60
2013,09,26,15,44,14.70
2013,09,26,15,45,14.70
2013,09,26,15,46,14.70
2013,09,26,15,47,14.70
2013,09,26,15,48,14.70
2013,09,26,15,49,14.80
2013,09,26,15,50,14.80
2013,09,26,15,51,14.80
2013,09,26,15,52,14.80
2013,09,26,15,53,14.80
2013,09,26,15,54,14.80
2013,09,26,15,55,14.90
2013,09,26,15,56,14.90
2013,09,26,15,57,15.00
2013,09,26,15,58,15.00
2013,09,26,15,59,15.10
2013,09,26,16,00,15.10
2013,09,26,16,01,15.20
2013,09,26,16,02,15.20
2013,09,26,16,03,15.30
2013,09,26,16,04,15.30
2013,09,26,16,05,15.30
2013,09,26,16,06,15.30
2013,09,26,16,07,15.40
2013,09,26,16,08,15.40
2013,09,26,16,09,15.40
2013,09,26,16,10,15.50
2013,09,26,16,11,15.50
2013,09,26,16,12,15.60
2013,09,26,16,13,15.60
2013,09,26,16,14,15.60
2013,09,26,16,15,15.70
2013,09,26,16,16,15.70
2013,09,26,16,17,15.70
2013,09,26,16,18,15.70
2013,09,26,16,19,15.70
2013,09,26,16,20,15.70
2013,09,26,16,21,15.60
2013,09,26,16,22,15.60
2013,09,26,16,23,15.50
2013,09,26,16,24,15.50
2013,09,26,16,25,15.40
2013,09,26,16,26,15.40
2013,09,26,16,27,15.30
2013,09,26,16,28,15.20
2013,09,26,16,29,15.20
2013,09,26,16,30,15.20
2013,09,26,16,31,15.20
2013,09,26,16,32,15.20
2013,09,26,16,33,15.10
2013,09,26,16,34,15.10
2013,09,26,16,35,15.10
2013,09,26,16,36,15.10
2013,09,26,16,37,15.10
2013,09,26,16,38,15.10
2013,09,26,16,39,15.00
2013,09,26,16,40,15.00
2013,09,26,16,41,15.00
2013,09,26,16,42,15.00
2013,09,26,16,43,14.90
2013,09,26,16,44,15.00
2013,09,26,16,45,15.00
2013,09,26,16,46,15.00
2013,09,26,16,47,15.00
2013,09,26,16,48,15.10
2013,09,26,16,49,15.10
2013,09,26,16,50,15.20
2013,09,26,16,51,15.20
2013,09,26,16,52,15.20
2013,09,26,16,53,15.30
2013,09,26,16,54,15.30
2013,09,26,16,55,15.40
2013,09,26,16,56,15.40
2013,09,26,16,57,15.40
2013,09,26,16,58,15.40
2013,09,26,16,59,15.40
2013,09,26,17,00,15.40
2013,09,26,17,01,15.40
2013,09,26,17,02,15.40
2013,09,26,17,03,15.40
2013,09,26,17,04,15.40
2013,09,26,17,05,15.40
2013,09,26,17,06,15.40
2013,09,26,17,07,15.40
2013,09,26,17,08,15.40
2013,09,26,17,09,15.40
2013,09,26,17,10,15.40
2013,09,26,17,11,15.40
2013,09,26,17,12,15.40
2013,09,26,17,13,15.40
2013,09,26,17,14,15.40
2013,09,26,17,15,15.40
2013,09,26,17,16,15.40
2013,09,26,17,17,15.50
2013,09,26,17,18,15.50
2013,09,26,17,19,15.50
2013,09,26,17,20,15.40
2013,09,26,17,21,15.40
2013,09,26,17,22,15.40
2013,09,26,17,23,15.40
2013,09,26,17,24,15.40
2013,09,26,17,25,15.30
2013,09,26,17,26,15.30
2013,09,26,17,27,15.30
2013,09,26,17,28,15.30
2013,09,26,17,29,15.30
2013,09,26,17,30,15.30
2013,09,26,17,31,15.30
2013,09,26,17,32,15.30
2013,09,26,17,33,15.30
2013,09,26,17,34,15.30
2013,09,26,17,35,15.30
2013,09,26,17,36,15.30
2013,09,26,17,37,15.40
2013,09,26,17,38,15.40
2013,09,26,17,39,15.40
2013,09,26,17,40,15.30
2013,09,26,17,41,15.30
2013,09,26,17,42,15.30
2013,09,26,17,43,15.30